Overview Statistics Trail Chart Weather Telemetry Raw packets
 

This is the latest recevied weather packets stored in our database for station/object N8TWM-13. If no packets are shown the sender has not sent any weather packets the latest 10 day(s).

<< 25 26 27 28 29 30 31 >>
Time Temp. Humidity Pressure Rain* Wind** Luminosity Snow
1788438886 27.22° C 79% 1017.4 hPa 0 mm - 149 W/m² -
1788438585 27.22° C 79% 1017.4 hPa 0 mm - 136 W/m² -
1788438284 26.67° C 79% 1017.5 hPa 0 mm - 75 W/m² -
1788437983 26.67° C 80% 1017.6 hPa 0 mm - 111 W/m² -
1788437678 26.67° C 80% 1017.4 hPa 0 mm - 102 W/m² -
1788437375 26.67° C 80% 1017.7 hPa 0 mm - 69 W/m² -
1788437073 26.67° C 80% 1017.4 hPa 0 mm - 58 W/m² -
1788436772 26.67° C 80% 1017.7 hPa 0 mm - 53 W/m² -
1788436490 26.11° C 80% 1017.8 hPa 0 mm - 48 W/m² -
1788436167 26.11° C 81% 1017.5 hPa 0 mm - 42 W/m² -
1788435862 26.11° C 81% 1017.1 hPa 0 mm - 36 W/m² -
1788435558 26.11° C 81% 1017.2 hPa 0 mm - 23 W/m² -
1788435254 26.11° C 81% 1017.4 hPa 0 mm - 14 W/m² -
1788434949 26.11° C 81% 1017.1 hPa 0 mm - 10 W/m² -
1788434645 26.11° C 80% 1017.2 hPa 0 mm - 9 W/m² -
1788434344 26.11° C 81% 1017 hPa 0 mm - 6 W/m² -
1788434043 26.11° C 81% 1017.1 hPa 0 mm - 5 W/m² -
1788433739 26.11° C 81% 1017 hPa 0 mm - 3 W/m² -
1788433435 26.11° C 80% 1016.9 hPa 0 mm - 1 W/m² -
1788433130 26.11° C 80% 1017 hPa 0 mm - 0 W/m² -
1788432825 26.11° C 80% 1016.6 hPa 0 mm - 0 W/m² -
1788432524 26.11° C 81% 1016.6 hPa 0 mm - 0 W/m² -
1788432219 26.11° C 80% 1016.5 hPa 0 mm - 0 W/m² -
1788431916 26.11° C 81% 1016.6 hPa 0 mm - 0 W/m² -
1788431612 26.11° C 81% 1016.9 hPa 0 mm - 0 W/m² -

* Rain latest hour (hover to see other rain measurements)
** Current wind speed in m/s (hover to see current wind gust speed)